Location: Toronto
(43.6667°N, 79.4167°W)
Time: 01:22:33
(UTC-04:00)

X-37B - Pass Details

Date: 21 June 2021
Orbit: 383 x 392 km, 45.0° (Epoch: 01 July)

Event Time Altitude Azimuth Distance (km) Brightness Sun altitude
Exits shadow 01:42:26 11° 79° (E) 1,338 3.5 -22.7°
Drops below altitude 10° 01:42:37 10° 79° (E) 1,409 3.6 -22.7°
Sets 01:44:41 0° 82° (E) 2,260 4.6 -22.6°
